FW0158 Weather Reports


time (UTC)temp
C
wind
direction
speed
KPH
gust
KPH
rain 1hr
cm
rain 24hr
cm
rain mn
cm
humidity
%
barometer
mb
20220627200017 30 245 8.0 19.3 0.00 0.00 0.00 52 1017.6
20220627194516 30 214 8.0 22.5 0.00 0.00 0.00 56 1017.7
20220627193015 30 350 4.8 17.7 0.00 0.00 0.00 58 1017.9
20220627191514 30 226 6.4 20.9 0.00 0.00 0.00 58 1018.2
20220627190016 30 238 6.4 20.9 0.00 0.00 0.00 56 1018.3
20220627184512 30 345 4.8 14.5 0.00 0.00 0.00 57 1018.5
20220627183011 30 260 8.0 14.5 0.00 0.00 0.00 57 1018.5
20220627181508 30 313 9.7 17.7 0.00 0.00 0.00 58 1018.9
20220627180008 30 310 6.4 19.3 0.00 0.00 0.00 58 1019.0
20220627174504 29 272 4.8 20.9 0.00 0.00 0.00 60 1019.1
20220627173002 28 295 3.2 24.1 0.00 0.00 0.00 60 1019.2
20220627171559 28 223 4.8 20.9 0.00 0.00 0.00 61 1019.4
20220627170057 28 330 4.8 14.5 0.00 0.00 0.00 62 1019.4
20220627164554 28 259 4.8 19.3 0.00 0.00 0.00 63 1019.6
20220627163052 27 210 6.4 19.3 0.00 0.00 0.00 64 1019.5
20220627161550 27 260 6.4 14.5 0.00 0.00 0.00 64 1019.5
20220627160047 27 293 8.0 20.9 0.00 0.00 0.00 67 1019.6
20220627154547 26 299 8.0 17.7 0.00 0.00 0.00 68 1019.6
20220627153042 26 237 4.8 17.7 0.00 0.00 0.00 69 1019.6
20220627151542 26 245 4.8 14.5 0.00 0.00 0.00 69 1019.8
20220627150040 26 4 1.6 14.5 0.00 0.00 0.00 70 1019.7
20220627144537 25 337 4.8 17.7 0.00 0.00 0.00 72 1019.6
20220627143036 25 2 6.4 16.1 0.00 0.00 0.00 72 1019.6
20220627141534 24 343 1.6 17.7 0.00 0.00 0.00 74 1019.6
20220627140030 24 295 4.8 19.3 0.00 0.00 0.00 74 1019.7
20220627134527 23 180 3.2 14.5 0.00 0.00 0.00 75 1019.8
20220627133025 23 279 3.2 14.5 0.00 0.00 0.00 75 1019.6
20220627131522 23 180 3.2 17.7 0.00 0.00 0.00 77 1019.5
20220627130019 22 180 4.8 17.7 0.00 0.00 0.00 78 1019.4
20220627124520 22 180 6.4 16.1 0.00 0.00 0.00 80 1019.3
20220627123017 22 180 3.2 14.5 0.00 0.00 0.00 82 1019.3
20220627121513 21 180 3.2 9.7 0.00 0.00 0.00 82 1019.0
20220627120012 21 180 3.2 14.5 0.00 0.00 0.00 84 1019.0
20220627114509 21 180 4.8 14.5 0.00 0.00 0.00 86 1018.8
20220627113012 21 180 3.2 16.1 0.00 0.00 0.00 87 1018.6
20220627111506 21 180 4.8 17.7 0.00 0.00 0.00 88 1018.5
20220627110010 21 180 4.8 14.5 0.00 0.00 0.00 88 1018.2
20220627104502 22 180 3.2 9.7 0.00 0.00 0.00 89 1018.0
20220627103100 22 180 3.2 14.5 0.00 0.00 0.00 89 1017.9
20220627101607 22 180 3.2 14.5 0.00 0.00 0.00 90 1017.6
20220627100057 22 180 3.2 12.9 0.00 0.00 0.00 90 1017.4
20220627094555 22 180 3.2 9.7 0.00 0.00 0.00 91 1017.4
20220627093107 22 180 3.2 8.0 0.00 0.00 0.00 91 1017.2
20220627091555 22 180 3.2 9.7 0.00 0.00 0.00 92 1017.3
20220627090104 22 180 4.8 14.5 0.00 0.00 0.00 92 1017.2
20220627084555 22 180 4.8 12.9 0.00 0.00 0.00 93 1017.1
20220627083052 22 180 1.6 6.4 0.00 0.00 0.00 93 1017.1
20220627081600 22 180 3.2 8.0 0.00 0.00 0.00 93 1017.1
20220627080051 22 180 3.2 9.7 0.00 0.00 0.00 93 1017.2
20220627074556 22 180 3.2 9.7 0.00 0.00 0.00 93 1017.1
20220627073050 22 180 1.6 6.4 0.00 0.00 0.00 93 1017.1
20220627071605 22 180 1.6 6.4 0.00 0.00 0.00 93 1017.1
20220627070050 22 180 0.0 4.8 0.00 0.00 0.00 93 1017.3
20220627064545 22 180 0.0 3.2 0.00 0.00 0.00 93 1017.5
20220627063044 22 180 0.0 0.0 0.00 0.00 0.00 93 1017.5
20220627061544 22 180 0.0 0.0 0.00 0.00 0.00 92 1017.4
20220627060042 22 180 0.0 0.0 0.00 0.00 0.00 92 1017.5
20220627054547 22 180 0.0 0.0 0.00 0.00 0.00 92 1017.6
20220627053040 22 180 0.0 0.0 0.00 0.00 0.00 92 1017.7
20220627051539 22 180 0.0 0.0 0.00 0.00 0.00 92 1017.7
20220627050037 22 180 0.0 0.0 0.00 0.00 0.00 91 1017.7
20220627044537 22 180 0.0 0.0 0.00 0.00 0.00 91 1017.8
20220627043036 22 180 0.0 1.6 0.00 0.00 0.00 91 1017.8
20220627041535 22 180 1.6 4.8 0.00 0.00 0.00 91 1018.1
20220627040038 22 180 0.0 3.2 0.00 0.00 0.00 90 1018.1
20220627034535 22 180 1.6 3.2 0.00 0.00 0.00 91 1017.9
20220627033037 22 180 0.0 3.2 0.00 0.00 0.00 91 1018.1
20220627031534 22 180 0.0 4.8 0.00 0.00 0.00 91 1017.8
20220627030029 22 180 0.0 6.4 0.00 0.00 0.00 91 1017.6
20220627024536 22 180 3.2 9.7 0.00 0.00 0.00 91 1017.6
20220627023027 22 180 3.2 16.1 0.00 0.00 0.00 90 1017.6
20220627021527 22 180 3.2 9.7 0.00 0.00 0.00 90 1017.3
20220627020028 22 180 3.2 6.4 0.00 0.00 0.00 89 1017.0
20220627014531 23 180 3.2 8.0 0.00 0.00 0.00 88 1016.7
20220627013025 23 180 1.6 4.8 0.00 0.00 0.00 87 1016.5
20220627011526 23 180 0.0 6.4 0.00 0.00 0.00 86 1016.4
20220627010024 23 180 3.2 6.4 0.00 0.00 0.00 85 1016.3
20220627004524 23 180 3.2 6.4 0.00 0.00 0.00 84 1016.0
20220627003027 23 180 1.6 6.4 0.00 0.00 0.00 85 1015.8
20220627001527 23 180 1.6 6.4 0.00 0.00 0.00 85 1015.4
20220627000022 23 180 4.8 9.7 0.00 0.00 0.00 85 1015.0
20220626234522 24 180 4.8 8.0 0.00 0.00 0.00 84 1014.7
20220626233023 25 180 1.6 4.8 0.00 0.00 0.00 80 1014.7
20220626231521 25 180 6.4 12.9 0.00 0.00 0.00 79 1014.4
20220626230022 25 180 1.6 6.4 0.00 0.00 0.00 76 1014.6
20220626224519 26 180 6.4 17.7 0.00 0.00 0.00 72 1014.6
20220626223017 26 180 0.0 14.5 0.00 0.00 0.00 70 1014.7
20220626221516 26 180 3.2 12.9 0.00 0.00 0.00 72 1015.2
20220626220015 25 180 4.8 17.7 0.00 0.00 0.00 75 1015.7
20220626214525 25 180 6.4 19.3 0.00 0.00 0.00 78 1016.3
20220626213020 25 180 9.7 29.0 0.00 0.00 0.00 76 1016.3
20220626211526 27 180 14.5 38.6 0.00 0.00 0.00 69 1016.1
20220626210113 31 280 11.3 29.0 0.00 0.00 0.00 62 1015.8
20220626204513 32 248 3.2 6.4 0.00 0.00 0.00 58 1015.1
20220626203014 30 31 1.6 6.4 0.00 0.00 0.00 63 1015.0
20220626201510 29 110 3.2 11.3 0.00 0.00 0.00 65 1015.1